TimeCEST,TemperatureF,Dew PointF,Humidity,Sea Level PressureIn,VisibilityMPH,Wind Direction,Wind SpeedMPH,Gust SpeedMPH,PrecipitationIn,Events,Conditions,WindDirDegrees,DateUTC
12:00 AM,64.4,60.8,88,30.01,4.3,NW,6.9,-,N/A,Rain-Thunderstorm,Thunderstorms and Rain,310,2013-07-24 22:00:00
12:09 AM,66.2,60.8,83,30.01,6.2,NNW,4.6,-,N/A,Rain-Thunderstorm,Light Thunderstorms and Rain,340,2013-07-24 22:09:00
12:30 AM,64.4,62.6,94,30.04,6.2,NW,6.9,-,N/A,Rain-Thunderstorm,Light Rain Showers,320,2013-07-24 22:30:00
12:44 AM,64.4,62.6,94,30.01,6.2,Variable,2.3,-,N/A,Rain,Light Rain Showers,0,2013-07-24 22:44:00
1:00 AM,64.4,62.6,94,30.01,6.2,ENE,3.5,-,N/A,Rain,Light Rain,70,2013-07-24 23:00:00
1:30 AM,64.4,62.6,94,30.01,6.2,Variable,1.2,-,N/A,,Partly Cloudy,0,2013-07-24 23:30:00
2:00 AM,64,62,93,30.01,16,SW,4.5,,,Rain,Light Rain,230,2013-07-25 00:00:00
2:00 AM,64.4,62.6,94,30.04,6.2,WSW,4.6,-,N/A,,Partly Cloudy,240,2013-07-25 00:00:00
2:30 AM,64.4,62.6,94,30.04,6.2,WSW,3.5,-,N/A,Rain,Light Rain,240,2013-07-25 00:30:00
3:00 AM,64.4,62.6,94,30.04,6.2,SW,3.5,-,N/A,Rain,Light Rain,230,2013-07-25 01:00:00
3:30 AM,64.4,62.6,94,30.04,6.2,Calm,Calm,-,N/A,Rain,Light Rain,0,2013-07-25 01:30:00
4:00 AM,64.4,62.6,94,30.04,-9999.0,WSW,5.8,-,N/A,,Clear,240,2013-07-25 02:00:00
4:30 AM,64.4,62.6,94,30.04,-9999.0,WSW,5.8,-,N/A,,Clear,250,2013-07-25 02:30:00
5:00 AM,64.4,60.8,88,30.04,-9999.0,WNW,2.3,-,N/A,,Clear,290,2013-07-25 03:00:00
5:30 AM,64.4,60.8,88,30.04,-9999.0,West,3.5,-,N/A,,Clear,280,2013-07-25 03:30:00
6:00 AM,62.6,60.8,94,30.04,-9999.0,Variable,2.3,-,N/A,,Clear,0,2013-07-25 04:00:00
6:30 AM,62.6,60.8,94,30.04,-9999.0,WSW,3.5,-,N/A,,Clear,250,2013-07-25 04:30:00
7:00 AM,64.4,62.6,94,30.04,-9999.0,WSW,5.8,-,N/A,,Clear,250,2013-07-25 05:00:00
7:30 AM,64.4,62.6,94,30.04,-9999.0,West,5.8,-,N/A,,Clear,260,2013-07-25 05:30:00
8:00 AM,65,63,91,30.02,9,West,4.5,,,,Partly Cloudy,270,2013-07-25 06:00:00
8:00 AM,64.4,62.6,94,30.04,6.2,West,5.8,-,N/A,,Mostly Cloudy,260,2013-07-25 06:00:00
8:30 AM,66.2,62.6,88,30.04,6.2,West,5.8,-,N/A,,Mostly Cloudy,260,2013-07-25 06:30:00
9:00 AM,66.2,64.4,94,30.04,6.2,West,8.1,-,N/A,,Mostly Cloudy,280,2013-07-25 07:00:00
9:30 AM,66.2,62.6,88,30.04,6.2,West,8.1,-,N/A,,Mostly Cloudy,270,2013-07-25 07:30:00
10:00 AM,68.0,62.6,83,30.04,6.2,West,8.1,-,N/A,,Mostly Cloudy,280,2013-07-25 08:00:00
10:30 AM,68.0,64.4,88,30.04,6.2,West,6.9,-,N/A,,Mostly Cloudy,260,2013-07-25 08:30:00
11:00 AM,69.8,62.6,78,30.04,6.2,WSW,5.8,-,N/A,,Scattered Clouds,250,2013-07-25 09:00:00
11:30 AM,71.6,62.6,73,30.06,6.2,West,4.6,-,N/A,,Scattered Clouds,270,2013-07-25 09:30:00
12:00 PM,71.6,62.6,73,30.06,6.2,West,4.6,-,N/A,,Mostly Cloudy,270,2013-07-25 10:00:00
12:05 PM,71.6,62.6,73,30.06,6.2,West,4.6,-,N/A,Rain,Light Rain Showers,270,2013-07-25 10:05:00
12:30 PM,75.2,62.6,65,30.06,6.2,NW,4.6,-,N/A,,Scattered Clouds,320,2013-07-25 10:30:00
1:00 PM,75.2,66.2,73,30.06,6.2,NNW,6.9,-,N/A,,Scattered Clouds,340,2013-07-25 11:00:00
1:30 PM,77.0,62.6,61,30.04,6.2,NW,5.8,-,N/A,,Scattered Clouds,310,2013-07-25 11:30:00
2:00 PM,76,62,53,30.00,12,NW,4.5,,,,Partly Cloudy,310,2013-07-25 12:00:00
2:00 PM,77.0,62.6,61,30.04,6.2,North,5.8,-,N/A,,Scattered Clouds,10,2013-07-25 12:00:00
2:30 PM,77.0,62.6,61,30.04,6.2,NNW,5.8,-,N/A,,Scattered Clouds,340,2013-07-25 12:30:00
3:00 PM,78.8,60.8,54,30.04,6.2,NNW,6.9,-,N/A,,Scattered Clouds,340,2013-07-25 13:00:00
3:30 PM,77.0,60.8,57,30.04,6.2,NNW,6.9,-,N/A,,Scattered Clouds,340,2013-07-25 13:30:00
4:00 PM,78.8,59.0,51,30.04,6.2,Variable,3.5,-,N/A,,Scattered Clouds,0,2013-07-25 14:00:00
4:30 PM,78.8,60.8,54,30.04,6.2,Variable,3.5,-,N/A,,Partly Cloudy,0,2013-07-25 14:30:00
5:00 PM,80.6,60.8,51,30.04,6.2,Variable,3.5,-,N/A,,Partly Cloudy,0,2013-07-25 15:00:00
5:30 PM,80.6,60.8,51,30.04,6.2,NE,5.8,-,N/A,,Partly Cloudy,40,2013-07-25 15:30:00
6:00 PM,78.8,60.8,54,30.04,-9999.0,NNE,6.9,-,N/A,,Clear,20,2013-07-25 16:00:00
6:30 PM,78.8,60.8,54,30.04,-9999.0,NNE,4.6,-,N/A,,Clear,20,2013-07-25 16:30:00
7:00 PM,78.8,60.8,54,30.01,-9999.0,NNE,5.8,-,N/A,,Clear,20,2013-07-25 17:00:00
7:30 PM,77.0,60.8,57,30.01,-9999.0,NE,5.8,-,N/A,,Clear,40,2013-07-25 17:30:00
8:00 PM,75.2,62.6,65,30.04,-9999.0,ENE,4.6,-,N/A,,Clear,60,2013-07-25 18:00:00
8:30 PM,73.4,60.8,65,30.04,-9999.0,East,3.5,-,N/A,,Clear,90,2013-07-25 18:30:00
9:00 PM,73.4,59.0,61,30.04,-9999.0,ENE,3.5,-,N/A,,Clear,70,2013-07-25 19:00:00
9:30 PM,71.6,60.8,69,30.04,-9999.0,East,3.5,-,N/A,,Clear,80,2013-07-25 19:30:00
10:00 PM,69.8,59.0,68,30.04,-9999.0,ENE,3.5,-,N/A,,Clear,70,2013-07-25 20:00:00
10:30 PM,69.8,59.0,68,30.04,-9999.0,ENE,3.5,-,N/A,,Clear,70,2013-07-25 20:30:00
11:00 PM,68.0,59.0,73,30.04,-9999.0,East,3.5,-,N/A,,Clear,100,2013-07-25 21:00:00
11:30 PM,68.0,59.0,73,30.04,-9999.0,ESE,4.6,-,N/A,,Clear,110,2013-07-25 21:30:00